ONEWEB-0080, 45426

Orbit data source: Space-Track

ONEWEB-0080, 45426 is a payload satellite owned by One Web (UK) in LEO that was launched on Sat, 21 Mar 2020 UTC via a SOYUZ-2-1B launch vehicle from the Tyuratam Missile And Space Complex (TTMTR). Payload-class satellites include a variety of spacecraft equipped with specific instruments for various scientific and technological missions. These include communications satellites like Starlink; space stations such as the ISS; scientific satellites like the Hubble; Earth observation satellites from companies like Planet Labs, Umbra, and HawkEye 360; GPS; miniature CubeSats for education and research; and military/defense satellites.

Loading next visibility...
Identifier
45426, 2020-020C
Orbit
LEO
Country
Flag of UKUK
Related business
Manufacturer
One Web
Mission
Operational Commercial Communications
Bus & Motor
ARROW, Unknown motor
Mass
148 kg wet, ~140 kg dry
Launch date (UTC)
2020-03-21 (6 years ago)
Launch vehicle
SOYUZ-2-1B
Launch site
Tyuratam Missile And Space Complex (TTMTR)
Object type
Payload
Rocket body
Debris
Shape & HBR
Trap Box + 2 Pan, 6.7 m
Radar Cross Section
3.464 m², Large (>1 m²)

Expand to show TLE details & history
Last TLE update: 17 hours ago

TLE from 17 hours ago
0 ONEWEB-0080
1 45426U 20020C   25287.82289704 -.00000226  00000-0 -67359-3 0  9994
2 45426  87.8821  69.9276 0001629 108.4560 251.6745 13.11419081270545
Epoch: 2025-10-14T19:44Z
TLE epoch observation values (Epoch: 2025-10-14T19:44:58.304Z)
Latitude
-0.00002°
Longitude
110.07886°
Altitude
1,220.953 km
Speed
7.244 km/s
True Right ascension
04h 39m 42s
True Declination
0° 00' 00"
Sunlit
Object was in full shadow at epoch
Visualization orbit readout
Latitude
Unknown
Longitude
Unknown
Altitude
Unknown
Speed
Unknown
Apparent Right ascension
Unknown
Apparent Declination
Unknown
Sunlit
N/A
Visualization observer readout
Local Sidereal Time
07:23:02
Azimuth
Unknown
Elevation
Unknown
Doppler factor
Unknown
Orbital elements
Apogee altitude
1,216.03 km
Perigee altitude
1,213.556 km
Semi-major axis
7,592.93 km
Eccentricity
0.00016
Inclination
87.8821°
RAAN
69.9276°
Arg. of periapsis
108.456°
True anomaly
251.65678°
Mean anomaly
251.6745°
Eccentric anomaly
251.66564°
Mean motion
3.28042 °/min
Orbital period
109.74 mins
BSTAR
-0.00067359
Loading maneuver chart data...
Computing Atmospheric mass density...
Loading historical data...
Loading historical data...
Loading historical data...
Loading historical data...
Loading historical data...
Loading historical data...
Loading historical data...

Documentation

Showing up to 5 results
|